User: anonymous   Login
Location: Friaudour
(46.0460°N, 1.2873°E)
Time: 08:56:29
(UTC+00:00)
Language:

Meteor 1-4 Rocket - Orbit

View from above orbital plane
View from above orbital plane
View from above satellite
View from above satellite

Ground track
Ground track

The orbit data is extracted from the following two-line orbital elements,

1  4394U 70037B   20265.90218945 +.00000563 +00000-0 +17853-4 0  9992
2  4394 081.2415 052.0666 0038745 006.4700 353.7028 15.30073630747512
Epoch (UTC): 21 September 2020 21:39:09
Eccentricity: 0.0038745
inclination: 81.2415°
perigee height: 449 km
apogee height: 502 km
right ascension of ascending node: 52.0666°
argument of perigee: 6.4700°
revolutions per day: 15.30073630
mean anomaly at epoch: 353.7028°
orbit number at epoch: 74751

The dashed part of the orbit path shows where the satellite is in the earth's shadow,  

DLR